[[[{"header":{"parameterUnit":"kt","parameterCategory":2,"dx":1,"dy":1,"la1":30.253999710083008,"la2":30.299108505249023,"lo1":-89.0895004272461,"lo2":-89.04439544677734,"nx":28,"ny":28,"refTime":"2022-10-16T21:00:00:Z","depth":0,"parameterNumber":1,"parameterNumberName":"U-component_of_WINDS"},"data":[-5.6761,-5.6826,-5.6742,-5.678,-5.6711,-5.6723,-5.67,-5.6663,-5.6612,-5.6619,-5.6608,-5.6531,-5.6448,-5.6416,-5.6402,-5.6368,-5.6369,-5.6456,-5.6402,-5.6085,-5.6036,-5.5989,-5.5967,-5.6457,-5.6458,-5.6741,-5.6744,-5.6746,-5.6547,-5.6479,-5.6472,-5.6409,-5.6404,-5.627,-5.6209,-5.6214,-5.6229,-5.6166,-5.6148,-5.6147,-5.6136,-5.6019,-5.5995,-5.6027,-5.5962,-5.6027,-5.6023,-5.6013,-5.5671,-5.5649,-5.608,-5.608,-5.6079,-5.6079,-5.6079,-5.6079,-5.6134,-5.6176,-5.6086,-5.6077,-5.6021,-5.598,-5.6006,-5.5907,-5.59,-5.586,-5.5758,-5.5773,-5.5694,-5.5619,-5.5573,-5.5584,-5.5497,-5.554,-5.5551,-5.5565,-5.5594,-5.5204,-5.5575,-5.5573,-5.5572,-5.5571,-5.557,0,-5.5805,-5.573,-5.5715,-5.5677,-5.5665,-5.5627,-5.5577,-5.5591,-5.54,-5.5403,-5.5399,-5.5383,-5.5351,-5.534,-5.5295,-5.5235,-5.5096,-5.5071,-5.5101,-5.5151,-5.5205,-5.5181,-5.4631,-5.506,-5.5055,-5.5052,-5.5049,-5.5047,-5.5384,-5.5441,-5.5302,-5.5304,-5.5252,-5.5259,-5.5244,-5.507,-5.5063,-5.4976,-5.5023,-5.5007,-5.4984,-5.4994,-5.4876,-5.4853,-5.4785,-5.4959,-5.478,-5.4828,-5.479,-5.4789,-5.4796,-5.4997,-5.5004,-5.5009,-5.5013,0,-5.5156,-5.501,-5.5069,-5.4923,-5.4888,-5.4958,-5.4834,-5.4868,-5.4765,-5.4799,-5.4796,-5.4635,-5.4635,-5.4486,-5.4454,-5.4378,-5.4499,-5.4431,-5.4527,-5.4506,-5.4649,-5.4639,-5.513,-5.5187,-5.4675,-5.468,-5.4684,0,-5.474,-5.4821,-5.4597,-5.4639,-5.4725,-5.4543,-5.4634,-5.4552,-5.4474,-5.4499,-5.4313,-5.434,-5.4143,-5.4151,-5.4036,-5.4107,-5.41,-5.4046,-5.4015,-5.4063,-5.4071,-5.4058,-5.4035,-5.3938,-5.3936,-5.3933,-5.3932,0,-5.4399,-5.4371,-5.4437,-5.4407,-5.4257,-5.4293,-5.4233,-5.4142,-5.4128,-5.4087,-5.4077,-5.4042,-5.4024,-5.4002,-5.3855,-5.374,-5.3937,-5.3748,-5.3882,-5.3887,-5.3933,-5.3932,-5.4405,-5.3929,-5.3928,-5.3927,-5.3926,0,-5.4038,-5.3996,-5.4113,-5.3983,-5.3983,-5.4026,-5.3977,-5.3979,-5.3897,-5.3826,-5.3791,-5.3648,-5.3693,-5.3518,-5.358,-5.3472,-5.3466,-5.3416,-5.3423,-5.3418,-5.3226,-5.3515,-5.3979,-5.4022,-5.3416,-5.3412,-5.3408,0,-5.3691,-5.3766,-5.3608,-5.3723,-5.3736,-5.3523,-5.3569,-5.3499,-5.3406,-5.3406,-5.3304,-5.3305,-5.3141,-5.312,-5.3171,-5.3066,-5.3207,-5.3042,-5.3051,-5.3054,-5.3082,-5.3506,-5.3613,-5.3894,-5.3351,-5.3357,-5.3362,0,-5.34,-5.321,-5.3242,-5.3199,-5.3073,-5.3082,-5.3134,-5.3092,-5.3101,-5.3041,-5.3082,-5.3077,-5.2954,-5.2921,-5.2798,-5.2859,-5.3107,-5.2718,-5.2713,-5.2796,-5.3308,-5.341,-5.3458,-5.3012,-5.3019,-5.3024,-5.3317,0,-5.2895,-5.2909,-5.2986,-5.2894,-5.2876,-5.2937,-5.2768,-5.2772,-5.2655,-5.2553,-5.2609,-5.2508,-5.2467,-5.2477,-5.2363,-5.2548,-5.2493,-5.236,-5.2177,-5.2456,-5.2549,-5.2586,-5.2054,-5.2047,-5.2042,-5.2037,0,0,-5.26,-5.2615,-5.2435,-5.2475,-5.2449,-5.2221,-5.2302,-5.225,-5.215,-5.2138,-5.2034,-5.2014,-5.1937,-5.2021,-5.2095,-5.2077,-5.2096,-5.2003,-5.2324,-5.2357,-5.2387,-5.2489,-5.253,-5.2028,-5.2026,-5.2024,-5.2022,0,-5.2378,-5.2298,-5.2377,-5.2314,-5.2213,-5.2098,-5.2119,-5.1978,-5.1916,-5.1965,-5.1778,-5.179,-5.1776,-5.172,-5.169,-5.1989,-5.1847,-5.1988,-5.2206,-5.2276,-5.2316,-5.235,-5.246,-5.2501,-5.2009,-5.201,-5.201,0,-5.2063,-5.1958,-5.1976,-5.19,-5.1831,-5.1849,-5.1615,-5.1642,-5.1653,-5.1402,-5.1453,-5.1375,-5.1284,-5.1383,-5.1421,-5.1328,-5.1631,-5.1503,-5.1532,-5.1533,-5.1592,-5.164,-5.1683,-5.1119,-5.1116,-5.1114,0,0,-5.1896,-5.1905,-5.1735,-5.1839,-5.1809,-5.1638,-5.1629,-5.1508,-5.1428,-5.1398,-5.1292,-5.1222,-5.1212,-5.121,-5.1191,-5.1323,-5.1291,-5.14,-5.1442,-5.1477,-5.1497,-5.1566,-5.1614,-5.1105,-5.1105,-5.1105,0,0,-5.1814,-5.1619,-5.1512,-5.1611,-5.1541,-5.138,-5.1452,-5.1317,-5.1281,-5.1255,-5.1054,-5.1026,-5.1115,-5.1045,-5.0943,-5.1123,-5.0945,-5.0965,-5.1165,-5.1216,-5.1257,-5.1272,-5.0688,0,0,0,0,0,-5.1498,-5.1643,-5.1548,-5.1539,-5.1439,-5.1433,-5.1419,-5.1254,-5.1132,-5.1194,-5.1084,-5.093,-5.0949,-5.0854,-5.0849,-5.0964,-5.0988,-5.1008,-5.1028,-5.1316,-5.1371,-5.1417,0,0,0,0,0,0,-5.1493,-5.1482,-5.1544,-5.1391,-5.1367,-5.1426,-5.1183,-5.1142,-5.1122,-5.1092,-5.0956,-5.0926,-5.0786,-5.0845,-5.0843,-5.0956,-5.0688,-5.0996,-5.1013,-5.1029,-5.1334,-5.1379,-5.1418,0,0,0,0,0,-5.1488,-5.1479,-5.1362,-5.1388,-5.1367,-5.1183,-5.1176,-5.114,-5.1121,-5.095,-5.0914,-5.0998,-5.0794,-5.0781,-5.0843,-5.0961,-5.0688,-5.0688,-5.1007,-5.1021,-5.1034,-5.1356,0,0,0,0,0,0,-5.1485,-5.1447,-5.1354,-5.1341,-5.1319,-5.1176,-5.1147,-5.1139,-5.0977,-5.0944,-5.0981,-5.096,-5.0801,-5.0789,-5.0781,-5.0972,-5.0688,-5.0688,-5.0688,-5.1018,-5.1029,-5.1039,0,0,0,0,0,0,-5.145,-5.1438,-5.1347,-5.127,-5.1247,-5.1171,-5.1146,-5.1173,-5.0978,-5.1017,-5.0994,-5.0974,-5.0815,-5.0797,-5.0789,-5.0838,-5.0689,-5.0688,-5.0688,-5.0688,-5.1027,-5.1035,0,0,0,0,0,0,-5.1442,-5.1431,-5.1272,-5.1255,-5.1234,-5.1082,-5.1192,-5.1099,-5.091,-5.1028,-5.0889,-5.0879,-5.0827,-5.0815,-5.0796,-5.085,-5.0841,-5.0689,-5.0688,-5.0688,-5.0688,0,0,0,0,0,0,0,-5.1436,-5.1546,-5.1428,-5.1242,-5.1223,-5.1227,-5.1223,-5.122,-5.0908,-5.09,-5.0891,-5.0883,-5.0689,-5.0689,-5.0689,-5.0859,0,0,-5.0689,-5.0689,0,0,0,0,0,0,0,0,-5.1547,-5.1546,-5.1427,-5.1425,-5.1422,-5.1226,-5.1223,-5.1221,-5.0907,-5.09,-5.0893,-5.0886,-5.0689,-5.0689,-5.0689,0,0,0,0,0,0,0,0,0,0,0,0,0,0,0,-5.1427,-5.1425,0,-5.1226,-5.1224,-5.1221,-5.0906,-5.09,-5.0894,-5.0889,-5.0689,-5.0689,-5.0689,0,0,0,0,0,0,0,0,0,0,0,0,0,0,0,0,0,0,0,0,0,0,0,0,0,0,0,0,0,0,0,0,0,0,0,0,0,0,0,0,0,0,0,0,0,0,0,0,0,0,0,0,0,0,0,0,0,0,0,0,0,0,0,0,0,0,0,0,0]}],[{"header":{"parameterUnit":"kt","parameterCategory":2,"dx":1,"dy":1,"la1":30.253999710083008,"la2":30.299108505249023,"lo1":-89.0895004272461,"lo2":-89.04439544677734,"nx":28,"ny":28,"refTime":"2022-10-16T21:00:00:Z","depth":0,"parameterNumber":2,"parameterNumberName":"V-component_of_WINDS"},"data":[2.3553,2.3455,2.3505,2.3415,2.3444,2.339,2.3385,2.3385,2.3396,2.3335,2.3308,2.3345,2.3373,2.335,2.3321,2.3337,2.3319,2.325,2.328,2.3551,2.3592,2.363,2.3656,2.3247,2.3246,2.299,2.2988,2.2986,2.3749,2.3778,2.3745,2.3747,2.3719,2.3816,2.3824,2.3792,2.374,2.3753,2.373,2.3678,2.3643,2.3695,2.3668,2.362,2.3661,2.3609,2.361,2.3612,2.3905,2.3933,2.3576,2.3576,2.3576,2.3576,2.3576,2.3576,2.4119,2.4059,2.4089,2.4054,2.4068,2.4068,2.4017,2.4066,2.4033,2.4013,2.4077,2.4017,2.4037,2.4027,2.4035,2.3988,2.4054,2.4009,2.3997,2.3983,2.3961,2.4318,2.3986,2.3987,2.3988,2.3989,2.399,0,2.4404,2.445,2.4422,2.4409,2.4386,2.4379,2.4381,2.4351,2.4461,2.4428,2.4384,2.4366,2.4329,2.429,2.4275,2.4293,2.4384,2.44,2.4369,2.4333,2.4306,2.4315,2.4787,2.4407,2.4411,2.4414,2.4416,2.4417,2.4777,2.4701,2.4757,2.473,2.4744,2.4699,2.4682,2.4786,2.4762,2.4777,2.4716,2.4681,2.4657,2.4575,2.4627,2.4598,2.4641,2.449,2.4636,2.4609,2.4633,2.4635,2.4626,2.4457,2.4452,2.4448,2.4445,0,2.4981,2.5064,2.4961,2.5024,2.5037,2.495,2.5002,2.4944,2.4998,2.4924,2.4913,2.4994,2.4947,2.5025,2.4986,2.5027,2.488,2.4926,2.4875,2.4886,2.4756,2.4765,2.4328,2.4275,2.4706,2.4702,2.4698,0,2.5329,2.5225,2.5353,2.5289,2.5177,2.5284,2.5169,2.5203,2.5224,2.5168,2.5289,2.5232,2.5342,2.5296,2.5357,2.5252,2.5246,2.5269,2.5285,2.5255,2.5251,2.5237,2.5255,2.5331,2.5333,2.5335,2.5337,0,2.5636,2.5584,2.5482,2.5483,2.5536,2.5485,2.5504,2.5529,2.551,2.5498,2.5486,2.5463,2.5448,2.5428,2.5506,2.5602,2.5381,2.5528,2.5404,2.5401,2.5345,2.5347,2.4946,2.5339,2.534,2.5341,2.5342,0,2.5927,2.5918,2.5758,2.5806,2.5787,2.5719,2.5706,2.5667,2.5683,2.5719,2.5709,2.5797,2.5715,2.5855,2.5742,2.5844,2.5823,2.5839,2.5832,2.5824,2.5977,2.5735,2.535,2.531,2.5824,2.5828,2.5831,0,2.6255,2.6117,2.6209,2.6055,2.6001,2.6142,2.6068,2.608,2.6121,2.608,2.6126,2.6076,2.6198,2.6192,2.6127,2.6169,2.6036,2.619,2.6121,2.6117,2.6108,2.5757,2.5677,2.5427,2.5884,2.5878,2.5874,0,2.6518,2.6588,2.6553,2.6558,2.6593,2.6548,2.6464,2.6441,2.6408,2.6408,2.6337,2.6272,2.636,2.635,2.6418,2.6345,2.6129,2.6448,2.645,2.6384,2.5918,2.5843,2.5801,2.6191,2.6184,2.6179,2.5916,0,2.6933,2.6875,2.6789,2.6794,2.6774,2.6682,2.6768,2.6735,2.6805,2.685,2.6748,2.6776,2.6747,2.6722,2.6787,2.6597,2.6639,2.6733,2.687,2.6641,2.6556,2.6521,2.6991,2.6996,2.6999,2.7003,0,0,2.7223,2.7143,2.7245,2.7169,2.7157,2.7303,2.7196,2.7201,2.7205,2.7192,2.7272,2.718,2.7197,2.7063,2.6999,2.6988,2.696,2.7036,2.6751,2.6722,2.6696,2.6604,2.6567,2.7009,2.7011,2.7012,2.7013,0,2.7392,2.7415,2.7311,2.7322,2.7342,2.7397,2.7372,2.7415,2.7438,2.7341,2.7458,2.7407,2.733,2.7332,2.7323,2.7057,2.7144,2.7043,2.6871,2.6787,2.6753,2.6724,2.6626,2.659,2.7023,2.7022,2.7022,0,2.7664,2.7699,2.7659,2.7642,2.7655,2.7596,2.7765,2.7695,2.7651,2.7808,2.7707,2.7733,2.7743,2.7607,2.7549,2.7618,2.7307,2.7421,2.7399,2.7392,2.7314,2.7274,2.7238,2.771,2.7712,2.7714,0,0,2.7796,2.7745,2.7812,2.7684,2.7685,2.7764,2.7741,2.7808,2.7817,2.7819,2.7853,2.7856,2.7813,2.7781,2.7744,2.7584,2.7591,2.7502,2.747,2.7443,2.7421,2.7336,2.7296,2.7722,2.7722,2.7722,0,0,2.7859,2.7934,2.8004,2.7867,2.7873,2.7928,2.7845,2.793,2.7907,2.7926,2.8031,2.8036,2.7911,2.7929,2.8025,2.7793,2.7929,2.7908,2.7785,2.7745,2.7713,2.7709,2.8195,0,0,0,0,0,2.8075,2.7926,2.7988,2.7978,2.7955,2.7895,2.7892,2.7978,2.8073,2.8005,2.8047,2.8144,2.8003,2.8089,2.8076,2.7966,2.7822,2.7805,2.7788,2.7592,2.7549,2.7513,0,0,0,0,0,0,2.8072,2.8059,2.7993,2.804,2.8036,2.7901,2.808,2.81,2.8082,2.8102,2.8133,2.8145,2.8214,2.8102,2.8088,2.7983,2.82,2.7815,2.78,2.7787,2.7577,2.7543,2.7513,0,0,0,0,0,2.807,2.806,2.8,2.8043,2.8039,2.8118,2.8087,2.8104,2.8092,2.8156,2.8171,2.8158,2.8209,2.8203,2.8094,2.7987,2.821,2.8205,2.7806,2.7794,2.7783,2.756,0,0,0,0,0,0,2.8068,2.8074,2.8002,2.8004,2.8106,2.8127,2.8134,2.8107,2.8148,2.8162,2.8187,2.8202,2.8203,2.82,2.8194,2.7984,2.8219,2.8213,2.821,2.7796,2.7787,2.7779,0,0,0,0,0,0,2.808,2.8075,2.8003,2.8078,2.8089,2.8135,2.8141,2.806,2.8146,2.8177,2.8192,2.8193,2.8209,2.8196,2.8193,2.8064,2.8225,2.822,2.8216,2.8214,2.7789,2.7782,0,0,0,0,0,0,2.8079,2.8075,2.8078,2.8086,2.8097,2.8124,2.8065,2.8035,2.8215,2.8173,2.8233,2.8241,2.8203,2.8202,2.8191,2.8063,2.8064,2.8225,2.8221,2.8219,2.8217,0,0,0,0,0,0,0,2.8079,2.809,2.7991,2.8093,2.8103,2.8021,2.8022,2.8022,2.8217,2.8224,2.8231,2.8238,2.8255,2.8249,2.8243,2.8062,0,0,2.8225,2.8223,0,0,0,0,0,0,0,0,2.8094,2.8091,2.7991,2.7991,2.7992,2.8021,2.8022,2.8022,2.8218,2.8224,2.823,2.8235,2.8254,2.8249,2.8244,0,0,0,0,0,0,0,0,0,0,0,0,0,0,0,2.7991,2.7991,0,2.8021,2.8021,2.8022,2.8219,2.8224,2.8228,2.8233,2.8252,2.8248,2.8245,0,0,0,0,0,0,0,0,0,0,0,0,0,0,0,0,0,0,0,0,0,0,0,0,0,0,0,0,0,0,0,0,0,0,0,0,0,0,0,0,0,0,0,0,0,0,0,0,0,0,0,0,0,0,0,0,0,0,0,0,0,0,0,0,0,0,0,0,0]}]]]